Weather in Bokovo-Khrustalne

Ukraine / Luhansk Region     48˚09′37″N   38˚50′19″E
temp.,
°C
wind,
m/s
gust,
m/s
humid.,
%
clouds,
%
prec.,
mm/h
press.,
hPa
HPBL,
m
3 december, thu
thu323:00−2˚ese6128998 0.0 1031497
02:00−2˚ese6108999 0.0 1031495
05:00−2˚ese61177100 0.0 1031426
08:00−2˚ese61176100 0.0 1031430
11:00−1˚ese6117298 0.0 1031437
14:00se6107599 0.0 1030510
17:00−2˚ese61378100 0.0 1030490
20:00−2˚se61274100 0.1 1030455
4 december, fri
fri423:00−3˚ese5107284 0.0 1031418
02:00−3˚ese6107889 0.0 1031384
05:00−2˚ese6108597 0.0 1030418
08:00−2˚ese6108599 0.0 1031395
11:00ese6981100 0.0 1030449
14:00ese6980100 0.0 1030488
17:00−1˚ese6118396 0.0 1031520
20:00−1˚ese6117796 0.0 1031549
5 december, sat
sat523:00−2˚e6107294 0.0 1031442
02:00−2˚e6117484 0.0 1032412
05:00−4˚e6117410 0.0 1032361
08:00−4˚e612665 0.0 1033379
11:00−1˚e711470 0.0 1033508
14:00e711400 0.0 1033547
17:00−3˚e714520 0.0 1034394
20:00−4˚e713520 0.0 1034379
6 december, sun
sun623:00−5˚e612500 0.0 1035358
02:00−6˚ene711530 0.0 1035329
05:00−7˚ene711570 0.0 1035323
08:00−7˚ene711590 0.0 1036314
11:00−4˚ene711450 0.0 1036414
14:00−3˚ene712530 0.0 1035492
17:00−6˚ene712710 0.0 1035409
20:00−7˚e713720 0.0 1036419
7 december, mon
mon723:00−7˚e712650 0.0 1036431
02:00−8˚ene713780 0.0 1036412
05:00−8˚e713790 0.0 1035379
08:00−8˚e814750 0.0 1036396
11:00−5˚e813580 0.0 1036496
14:00−4˚e812540 0.0 1036529
17:00−5˚e713620 0.0 1036432
20:00−6˚e713600 0.0 1036406